Page, AZ

3:50 AM MST on January 22, 2018 (GMT -0700)
Page Municipal

Weather History for KPGA - November, 2014

Change the Weather History Date:

Sunday, November 9, 2014

  Actual Average Record
Temperature  
Mean Temperature 54 °F -  
Max Temperature 66 °F 57 °F 70 °F (2006)
Min Temperature 42 °F 37 °F 28 °F (1986)
Degree Days  
Heating Degree Days 11    
Growing Degree Days 4 (Base 50)    
Moisture  
Dew Point 26 °F    
Average Humidity 33    
Maximum Humidity 51    
Minimum Humidity 13    
Precipitation  
Precipitation 0.00 in - - ()
Sea Level Pressure  
Sea Level Pressure 29.94 in    
Wind  
Wind Speed 3 mph (WSW)    
Max Wind Speed 6 mph    
Max Gust Speed -    
Visibility 10 miles    
Events      
Averages and records for this station are not official NWS values.
T = Trace of Precipitation, MM = Missing Value Source: NWS Daily Summary

Daily Weather History Graph

Daily Weather History Graph

Search for Another Location

Airport or City:

Trip Planner

Search our weather history database for the weather conditions in past years. The results will help you decide how hot, cold, wet, or windy it might be!

Date:

Astronomy

Nov. 09, 2014 Rise Set
Actual Time 6:58 AM MST 5:20 PM MST
Civil Twilight 6:30 AM MST 5:48 PM MST
Nautical Twilight 5:59 AM MST 6:19 PM MST
Astronomical Twilight 5:29 AM MST 6:49 PM MST
Moon 7:58 PM MST (11/9) 9:32 AM MST (11/9)
Length of Visible Light 11h 17m
Length of Day
10h 22m
Waning Gibbous, 91% of the Moon is Illuminated
Nov 9
Waning Gibbous
Nov 14
Last Quarter
Nov 22
New
Nov 29
First Quarter
Dec 6
Full

Hourly Weather History & Observations

Time (MST) Temp. Dew Point Humidity Pressure Visibility Wind Dir Wind Speed Gust Speed Precip Events Conditions
12:53 AM 48.9 °F 28.0 °F 44% 30.12 in 10.0 mi West 3.5 mph - N/A   Clear
1:53 AM 48.0 °F 27.0 °F 44% 30.11 in 10.0 mi Calm Calm - N/A   Clear
2:53 AM 46.9 °F 27.0 °F 46% 30.10 in 10.0 mi WSW 3.5 mph - N/A   Clear
3:53 AM 50.0 °F 25.0 °F 38% 30.07 in 10.0 mi WSW 3.5 mph - N/A   Clear
4:53 AM 48.0 °F 25.0 °F 41% 30.08 in 10.0 mi WSW 4.6 mph - N/A   Clear
5:53 AM 46.9 °F 25.0 °F 42% 30.09 in 10.0 mi WNW 4.6 mph - N/A   Clear
6:53 AM 43.0 °F 26.1 °F 51% 30.11 in 10.0 mi Calm Calm - N/A   Clear
7:53 AM 46.9 °F 26.1 °F 44% 30.11 in 10.0 mi Calm Calm - N/A   Clear
8:53 AM 52.0 °F 26.1 °F 37% 30.09 in 10.0 mi Calm Calm - N/A   Clear
9:53 AM 54.0 °F 27.0 °F 35% 30.08 in 10.0 mi WNW 3.5 mph - N/A   Clear
10:53 AM 55.9 °F 28.0 °F 34% 30.05 in 10.0 mi NNW 3.5 mph - N/A   Clear
11:53 AM 61.0 °F 28.0 °F 29% 29.99 in 10.0 mi Variable 3.5 mph - N/A   Clear
12:53 PM 62.1 °F 28.0 °F 28% 29.94 in 10.0 mi Variable 3.5 mph - N/A   Clear
1:53 PM 64.9 °F 27.0 °F 24% 29.88 in 10.0 mi Variable 4.6 mph - N/A   Clear
2:53 PM 66.0 °F 27.0 °F 23% 29.85 in 10.0 mi NE 3.5 mph - N/A   Clear
3:53 PM 64.9 °F 28.0 °F 25% 29.82 in 10.0 mi East 4.6 mph - N/A   Clear
4:53 PM 64.0 °F 26.1 °F 24% 29.80 in 10.0 mi NE 4.6 mph - N/A   Clear
5:53 PM 59.0 °F 26.1 °F 28% 29.79 in 10.0 mi Variable 3.5 mph - N/A   Clear
6:53 PM 57.0 °F 28.0 °F 33% 29.80 in 10.0 mi SSE 3.5 mph - N/A   Clear
7:53 PM 55.0 °F 28.9 °F 37% 29.79 in 6.0 mi SW 4.6 mph - N/A   Haze
8:53 PM 57.0 °F 25.0 °F 29% 29.76 in 10.0 mi West 4.6 mph - N/A   Clear
9:53 PM 54.0 °F 25.0 °F 33% 29.76 in 10.0 mi South 5.8 mph - N/A   Clear
10:53 PM 53.1 °F 25.0 °F 34% 29.75 in 10.0 mi Calm Calm - N/A   Clear
11:53 PM 55.0 °F 25.0 °F 31% 29.72 in 10.0 mi Calm Calm - N/A   Clear